WMT6ED LEBL-LROP

Flight info

Callsign WMT6ED
Flight time N/A
Altitude 38000
Route DIPES3Q/24L DIPES DCT TOSNU DCT LAPIT N725 OSPOK DCT NOLVI/N0445F390 DCT ORKUM/N0447F380 DCT ELSAG DCT ALG DCT MINKA DCT POZZO DCT TINIX DCT XOLTA/N0445F390 DCT BUNEX DCT BAJUN DCT NISVA DCT SOMOV DCT SORDU
Aircraft A20N/M-SDE2E3FGHIRWXY/LB1

Departure

Time N/A
Airport Josep Tarradellas Barcelona-El Prat Airport (LEBL)

Arrival

Time 2026-05-05 12:23
Airport Bucharest Henri Coandă International Airport (LROP)
Time Latitude Longitude Altitude Speed Heading
2026-05-05 12:10 44.13368 25.74790 22093 ft 440 kts 65°
2026-05-05 12:10 44.14559 25.78682 21371 ft 434 kts 65°
2026-05-05 12:10 44.15747 25.82554 20654 ft 429 kts 65°
2026-05-05 12:11 44.16902 25.86319 19947 ft 423 kts 65°
2026-05-05 12:11 44.18038 25.90121 19108 ft 422 kts 67°
2026-05-05 12:11 44.18994 25.93927 18396 ft 418 kts 70°
2026-05-05 12:11 44.19860 25.97780 17597 ft 414 kts 71°
2026-05-05 12:12 44.20682 26.01620 16903 ft 407 kts 71°
2026-05-05 12:12 44.21464 26.05340 16618 ft 403 kts 71°
2026-05-05 12:12 44.22252 26.09114 16084 ft 404 kts 71°
2026-05-05 12:12 44.23028 26.12857 15673 ft 392 kts 71°
2026-05-05 12:13 44.23762 26.16408 15418 ft 376 kts 71°
2026-05-05 12:13 44.24483 26.19868 15189 ft 361 kts 70°
2026-05-05 12:13 44.25483 26.22925 14964 ft 343 kts 53°
2026-05-05 12:13 44.27123 26.25242 14776 ft 324 kts 37°
2026-05-05 12:14 44.28897 26.27004 14528 ft 305 kts 33°
2026-05-05 12:14 44.30632 26.28609 14223 ft 290 kts 33°
2026-05-05 12:14 44.32279 26.30138 13756 ft 283 kts 33°
2026-05-05 12:14 44.33910 26.31677 13113 ft 280 kts 33°
2026-05-05 12:15 44.35499 26.33197 12491 ft 278 kts 34°
2026-05-05 12:15 44.37090 26.34733 11911 ft 276 kts 34°
2026-05-05 12:15 44.38665 26.36261 11316 ft 273 kts 34°
2026-05-05 12:15 44.40198 26.37753 10872 ft 267 kts 34°
2026-05-05 12:16 44.41673 26.39199 10631 ft 253 kts 34°
2026-05-05 12:16 44.43098 26.40602 10255 ft 247 kts 34°
2026-05-05 12:16 44.44502 26.41975 9807 ft 245 kts 33°
2026-05-05 12:16 44.46019 26.43017 9249 ft 243 kts 14°
2026-05-05 12:17 44.47700 26.43140 8736 ft 244 kts 358°
2026-05-05 12:17 44.49388 26.42856 8236 ft 243 kts 354°
2026-05-05 12:17 44.51039 26.42503 7752 ft 241 kts 353°
2026-05-05 12:17 44.52700 26.42144 7291 ft 237 kts 353°
2026-05-05 12:18 44.54300 26.41808 6727 ft 234 kts 353°
2026-05-05 12:18 44.55914 26.41446 6090 ft 235 kts 350°
2026-05-05 12:18 44.57416 26.40569 5504 ft 239 kts 327°
2026-05-05 12:18 44.58424 26.38714 4986 ft 240 kts 293°
2026-05-05 12:19 44.58630 26.36471 4858 ft 227 kts 271°
2026-05-05 12:19 44.58500 26.34331 4703 ft 211 kts 266°
2026-05-05 12:19 44.58352 26.32340 4375 ft 206 kts 266°
2026-05-05 12:19 44.58196 26.30303 3779 ft 211 kts 265°
2026-05-05 12:20 44.58038 26.28269 3117 ft 209 kts 263°
2026-05-05 12:20 44.57882 26.26282 2643 ft 197 kts 263°
2026-05-05 12:20 44.57740 26.24461 2343 ft 182 kts 263°
2026-05-05 12:20 44.57604 26.22682 1847 ft 183 kts 263°
2026-05-05 12:21 44.57473 26.20929 1460 ft 176 kts 263°
2026-05-05 12:21 44.57350 26.19274 1215 ft 180 kts 263°
2026-05-05 12:21 44.57201 26.17317 908 ft 215 kts 263°
2026-05-05 12:21 44.57043 26.15289 791 ft 205 kts 262°
2026-05-05 12:22 44.56887 26.13358 501 ft 193 kts 264°
2026-05-05 12:22 44.56756 26.11563 325 ft 177 kts 263°
2026-05-05 12:22 44.56653 26.10208 326 ft 96 kts 264°
2026-05-05 12:22 44.56599 26.09465 326 ft 66 kts 264°
2026-05-05 12:23 44.56561 26.08952 326 ft 37 kts 264°
2026-05-05 12:23 44.56595 26.08635 325 ft 32 kts 318°
2026-05-05 12:23 44.56777 26.08571 325 ft 27 kts 354°
2026-05-05 12:23 44.56897 26.08492 325 ft 15 kts 271°
2026-05-05 12:24 44.56938 26.08380 326 ft 13 kts 315°
2026-05-05 12:24 44.56946 26.08258 326 ft 13 kts 264°
2026-05-05 12:24 44.56937 26.08132 326 ft 13 kts 264°
2026-05-05 12:24 44.56927 26.08005 326 ft 13 kts 265°
2026-05-05 12:25 44.56983 26.07967 324 ft 9 kts 353°
2026-05-05 12:25 44.57010 26.07964 324 ft 0 kts 354°